TimeEDT,TemperatureF,Dew PointF,Humidity,Sea Level PressureIn,VisibilityMPH,Wind Direction,Wind SpeedMPH,Gust SpeedMPH,PrecipitationIn,Events,Conditions,WindDirDegrees,DateUTC
12:55 AM,61.3,54.9,79,30.01,10.0,WSW,6.9,-,N/A,,Clear,240,2012-10-05 04:55:00
1:55 AM,59.9,55.6,86,30.01,10.0,SW,5.8,-,N/A,,Clear,230,2012-10-05 05:55:00
2:55 AM,59.7,55.0,84,30.01,10.0,SW,6.9,-,N/A,,Clear,230,2012-10-05 06:55:00
3:55 AM,59.5,54.9,84,30.00,10.0,SW,6.9,-,N/A,,Clear,230,2012-10-05 07:55:00
4:55 AM,55.2,53.2,93,29.99,10.0,South,6.9,-,N/A,,Clear,190,2012-10-05 08:55:00
5:55 AM,55.2,53.2,93,29.99,10.0,South,6.9,-,N/A,,Clear,170,2012-10-05 09:55:00
6:55 AM,55.4,52.9,91,29.98,10.0,SSE,9.2,-,N/A,,Scattered Clouds,160,2012-10-05 10:55:00
7:55 AM,56.3,53.1,89,29.97,10.0,SSE,9.2,-,N/A,,Partly Cloudy,160,2012-10-05 11:55:00
8:55 AM,62.1,53.2,73,29.97,10.0,SW,9.2,-,N/A,,Scattered Clouds,220,2012-10-05 12:55:00
9:11 AM,64.4,53.6,68,29.98,10.0,SW,10.4,20.7,N/A,,Light Drizzle,230,2012-10-05 13:11:00
9:55 AM,59.4,56.5,90,29.99,8.0,SSW,11.5,-,0.04,Rain,Light Rain,210,2012-10-05 13:55:00
10:04 AM,59.0,57.2,94,29.99,10.0,SSW,10.4,-,N/A,,Overcast,210,2012-10-05 14:04:00
10:30 AM,60.8,57.2,88,29.99,10.0,SW,10.4,-,N/A,,Light Drizzle,220,2012-10-05 14:30:00
10:38 AM,60.8,57.2,88,29.98,10.0,SSW,13.8,19.6,N/A,,Mostly Cloudy,210,2012-10-05 14:38:00
10:47 AM,60.8,59.0,94,29.98,10.0,SSW,11.5,19.6,N/A,Rain,Light Rain,210,2012-10-05 14:47:00
10:55 AM,60.4,58.6,94,29.98,10.0,SSW,10.4,-,0.00,Rain,Light Rain,210,2012-10-05 14:55:00
11:03 AM,60.8,59.0,94,29.98,10.0,SW,6.9,-,N/A,,Mostly Cloudy,220,2012-10-05 15:03:00
11:55 AM,63.9,60.1,87,29.96,10.0,SSW,9.2,-,0.00,,Scattered Clouds,210,2012-10-05 15:55:00
12:47 PM,66.2,59.0,78,29.95,10.0,WSW,10.4,17.3,N/A,,Mostly Cloudy,240,2012-10-05 16:47:00
12:55 PM,65.8,59.4,80,29.95,10.0,SW,8.1,17.3,N/A,,Mostly Cloudy,230,2012-10-05 16:55:00
1:55 PM,66.0,57.9,75,29.93,10.0,WSW,8.1,-,N/A,,Overcast,240,2012-10-05 17:55:00
2:55 PM,65.8,58.6,78,29.92,10.0,WSW,10.4,-,N/A,,Overcast,240,2012-10-05 18:55:00
3:16 PM,66.2,59.0,78,29.92,10.0,West,10.4,-,N/A,,Light Drizzle,260,2012-10-05 19:16:00
3:25 PM,66.2,60.8,83,29.92,10.0,WSW,9.2,-,N/A,,Overcast,250,2012-10-05 19:25:00
3:43 PM,66.2,60.8,83,29.91,10.0,West,5.8,-,N/A,,Mostly Cloudy,260,2012-10-05 19:43:00
3:46 PM,66.2,60.8,83,29.91,10.0,West,9.2,-,N/A,,Mostly Cloudy,260,2012-10-05 19:46:00
3:55 PM,66.0,60.8,83,29.91,10.0,WSW,11.5,-,0.00,,Mostly Cloudy,240,2012-10-05 19:55:00
4:01 PM,66.2,60.8,83,29.91,10.0,WSW,13.8,20.7,N/A,,Scattered Clouds,250,2012-10-05 20:01:00
4:55 PM,65.3,60.1,83,29.91,10.0,WSW,12.7,24.2,N/A,,Scattered Clouds,250,2012-10-05 20:55:00
5:08 PM,64.4,60.8,88,29.91,10.0,West,9.2,18.4,N/A,,Mostly Cloudy,260,2012-10-05 21:08:00
5:16 PM,64.4,60.8,88,29.91,10.0,WSW,8.1,-,N/A,,Mostly Cloudy,250,2012-10-05 21:16:00
5:38 PM,62.6,59.0,88,29.92,10.0,West,9.2,-,N/A,,Overcast,260,2012-10-05 21:38:00
5:55 PM,62.4,58.6,87,29.91,10.0,WSW,8.1,-,N/A,,Scattered Clouds,240,2012-10-05 21:55:00
6:27 PM,60.8,57.2,88,29.91,10.0,SW,5.8,-,N/A,,Mostly Cloudy,230,2012-10-05 22:27:00
6:31 PM,60.8,57.2,88,29.91,10.0,SW,8.1,-,N/A,,Mostly Cloudy,230,2012-10-05 22:31:00
6:37 PM,60.8,57.2,88,29.91,10.0,SW,6.9,-,N/A,,Mostly Cloudy,230,2012-10-05 22:37:00
6:55 PM,61.0,56.5,85,29.91,10.0,SW,6.9,-,N/A,,Mostly Cloudy,230,2012-10-05 22:55:00
7:09 PM,60.8,55.4,82,29.91,10.0,SW,6.9,-,N/A,,Scattered Clouds,220,2012-10-05 23:09:00
7:55 PM,60.1,55.9,86,29.91,10.0,SSW,8.1,-,N/A,,Mostly Cloudy,210,2012-10-05 23:55:00
8:55 PM,60.1,54.3,81,29.90,10.0,SSW,6.9,-,N/A,,Mostly Cloudy,210,2012-10-06 00:55:00
9:16 PM,60.8,53.6,77,29.90,10.0,SW,5.8,-,N/A,,Light Drizzle,220,2012-10-06 01:16:00
9:31 PM,59.0,53.6,82,29.90,10.0,SW,5.8,-,N/A,,Overcast,220,2012-10-06 01:31:00
9:46 PM,59.0,53.6,82,29.90,10.0,SW,8.1,-,N/A,,Light Drizzle,220,2012-10-06 01:46:00
9:55 PM,59.2,53.8,82,29.90,10.0,SW,5.8,-,0.00,,Light Drizzle,220,2012-10-06 01:55:00
10:26 PM,57.2,55.4,94,29.90,10.0,SW,6.9,-,N/A,,Overcast,230,2012-10-06 02:26:00
10:55 PM,57.9,55.0,90,29.88,10.0,SSW,4.6,-,0.00,,Overcast,200,2012-10-06 02:55:00
10:58 PM,57.2,55.4,94,29.88,10.0,SSW,4.6,-,N/A,Rain,Light Rain,210,2012-10-06 02:58:00
11:14 PM,57.2,55.4,94,29.88,10.0,Calm,Calm,-,N/A,,Overcast,0,2012-10-06 03:14:00
11:32 PM,57.2,55.4,94,29.89,10.0,West,3.5,-,N/A,,Light Drizzle,260,2012-10-06 03:32:00
11:46 PM,57.2,55.4,94,29.88,10.0,SW,3.5,-,N/A,,Light Drizzle,220,2012-10-06 03:46:00
11:55 PM,56.7,55.9,97,29.88,10.0,SSW,3.5,-,0.00,,Overcast,210,2012-10-06 03:55:00
11:57 PM,57.2,55.4,94,29.88,10.0,SSW,3.5,-,N/A,,Overcast,200,2012-10-06 03:57:00
11:58 PM,57.2,55.4,94,29.88,10.0,SSW,3.5,-,N/A,,Overcast,200,2012-10-06 03:58:00